Dewpoint
46 45 45 46 46 50 46 46 47 47 46 47 47 47 47 48 51 50 50 51 51 48 49 46 45 46 46 46 48 49 51 53 53 53 54 54 53 53 55 55 55 55 56 57 57 55 53 51 52 57 58 58 59 57 53 53 50 51 48 48 47 47 47
47 47 47 46 45 47 46 46 47 46 46 46 47 47 47 46 50 51 50 50 50 49 49 47 45 45 45 45 46 47 49 50 51 54 54 54 54 53 53 54 55 55 55 56 57 57 54 52 52 53 54 57 57 57 51 51 45 48 46 46 47 48 51
45 45 46 44 44 46 46 45 46 46 46 46 47 47 46 46 48 50 49 48 47 48 49 45 46 45 46 46 46 47 49 48 50 52 53 53 53 54 54 54 53 54 54 54 56 56 55 54 52 52 54 53 53 54 50 50 44 43 44 47 48 47 46
44 45 46 45 43 45 46 45 45 46 45 45 47 46 46 46 49 50 48 46 47 47 47 45 45 45 46 46 46 47 47 47 49 51 51 52 53 53 53 54 54 53 52 52 53 55 54 53 53 53 54 54 54 51 47 43 43 47 44 46 45 45 46
45 44 46 46 44 44 45 45 45 45 44 45 46 45 45 46 50 48 47 45 46 45 45 45 45 45 46 46 46 47 47 47 48 50 50 50 51 52 52 53 54 55 55 53 55 55 55 54 54 53 54 55 54 52 46 42 41 45 45 45 43 44 46
46 44 45 47 45 45 45 45 44 44 44 44 45 45 45 47 49 47 46 45 44 44 45 44 45 45 45 46 46 47 47 47 48 48 49 49 50 51 52 53 54 55 55 56 56 56 55 55 54 53 54 54 51 48 45 42 39 39 42 41 41 43 45
47 45 45 46 46 45 45 45 44 44 44 44 44 45 46 48 47 46 45 44 43 43 44 44 44 44 45 45 46 46 46 47 48 48 49 49 51 51 52 53 53 55 56 56 55 56 56 55 54 53 53 53 50 47 46 41 41 45 48 38 39 43 46
48 45 45 48 45 44 44 44 44 44 44 45 45 46 47 47 47 45 45 43 43 42 43 43 43 43 44 45 46 46 47 47 47 48 48 49 50 51 52 52 54 55 55 56 56 56 55 56 55 54 53 50 48 47 47 46 45 46 36 34 38 41 44
49 46 46 46 45 45 44 44 44 44 45 45 46 46 47 47 46 45 44 43 42 42 42 43 42 43 43 44 45 45 46 48 47 48 48 50 51 52 52 54 54 54 55 55 55 56 57 57 57 56 54 51 47 45 47 44 45 39 35 34 36 39 42
45 44 44 44 44 45 45 44 45 45 45 46 47 48 47 47 46 45 43 42 42 42 42 42 42 43 43 44 44 45 45 46 47 47 49 51 52 53 54 54 53 54 55 55 56 56 57 57 57 57 56 52 50 47 45 43 44 38 34 34 36 38 40
45 44 44 44 44 44 44 44 45 45 44 45 47 48 47 46 45 45 42 42 41 42 41 41 42 42 43 44 44 45 45 46 46 49 51 53 53 52 54 53 54 55 55 56 56 56 57 57 57 57 57 56 53 48 47 44 43 37 36 38 40 37 39
45 44 45 45 44 43 44 44 44 44 44 46 46 46 47 45 44 43 42 41 41 41 41 41 42 42 42 43 43 44 44 45 47 49 50 51 53 53 53 53 54 54 55 55 56 56 57 57 57 57 57 56 55 52 49 48 43 42 37 37 39 37 36
45 44 44 44 43 43 44 44 44 43 44 45 44 46 46 45 43 42 41 41 40 40 40 41 42 41 42 43 43 43 44 45 47 49 50 51 52 53 53 53 52 53 54 56 56 56 56 57 57 57 57 55 55 55 52 50 42 41 43 39 37 35 35
44 44 43 43 42 42 43 44 44 44 44 43 44 46 46 45 43 42 41 41 40 40 40 41 41 41 41 41 42 43 44 46 47 49 52 50 52 52 53 51 51 51 52 53 55 56 56 57 57 57 57 56 55 56 52 48 42 40 39 38 37 35 36
43 42 42 42 42 42 42 42 44 42 42 43 44 46 46 45 43 42 40 39 39 40 40 41 41 41 41 41 43 44 45 46 48 50 52 51 51 52 52 51 51 51 50 50 53 55 56 56 57 56 57 56 56 56 53 45 42 38 36 37 36 36 36
42 41 41 41 41 41 41 41 44 42 42 42 44 46 46 44 43 41 40 40 39 39 40 40 41 40 40 41 41 42 45 47 49 50 51 51 52 52 52 52 50 50 49 46 48 52 55 56 57 56 56 56 55 55 53 43 40 37 35 36 36 35 35
41 41 40 40 40 40 41 41 43 42 41 42 43 44 46 45 43 41 40 39 39 39 39 40 40 40 40 40 41 43 45 47 50 50 51 51 51 52 52 51 51 49 48 45 46 50 53 56 56 56 56 56 56 55 52 43 40 38 37 37 37 35 37
40 40 40 40 40 40 40 40 41 41 41 41 43 43 45 45 42 41 40 39 39 38 39 40 40 39 40 40 41 43 44 47 50 50 51 51 52 51 51 50 51 48 47 46 47 49 52 54 55 56 56 56 55 53 50 44 42 40 38 37 39 40 38
40 40 40 40 40 40 40 40 40 41 42 41 42 43 44 45 43 40 40 39 38 38 39 40 40 39 39 40 41 43 44 47 50 50 51 50 50 50 50 47 47 48 47 47 48 49 51 52 55 55 55 55 55 53 49 46 42 41 40 40 40 41 40
40 40 39 39 40 39 39 39 40 40 41 41 42 42 42 44 44 41 40 39 39 38 39 40 39 39 39 39 41 42 43 46 48 50 50 50 49 47 48 47 45 48 49 49 49 49 50 52 54 55 55 55 54 51 48 45 43 42 42 42 42 41 41
40 40 40 39 39 39 39 39 40 40 41 41 42 42 41 41 43 42 41 39 38 38 39 39 39 39 39 39 40 42 43 45 47 48 49 49 49 46 45 45 44 47 51 51 50 49 50 52 54 54 55 55 53 51 47 46 44 44 43 43 43 43 43
40 39 39 39 39 39 39 40 40 40 40 41 43 42 41 40 40 41 41 39 38 38 39 39 39 39 39 39 40 41 42 44 46 47 48 48 49 48 44 43 43 45 49 51 51 51 52 54 54 54 54 54 53 52 51 50 48 46 44 44 43 43 42
39 39 38 38 38 39 39 40 40 40 40 40 41 42 41 41 40 40 40 39 38 38 38 38 40 40 40 40 41 41 41 43 45 46 47 47 48 48 45 42 43 48 48 49 49 49 49 50 53 54 53 54 53 52 51 50 49 47 45 44 43 41 40
39 38 38 38 38 39 39 40 39 39 40 40 40 41 40 40 40 40 40 40 38 37 37 37 38 37 38 39 41 41 41 42 44 46 46 46 47 48 45 42 41 43 44 47 44 47 49 48 49 49 50 52 55 53 50 51 50 48 47 44 42 40 40
38 38 38 38 38 38 39 39 39 39 39 39 40 39 39 39 39 39 39 39 38 37 37 39 37 37 38 38 40 40 40 41 43 45 45 45 46 47 45 42 41 41 40 44 43 42 46 50 50 50 49 48 47 45 46 51 50 49 47 44 41 40 40
38 38 38 38 38 38 38 39 39 39 39 40 38 38 39 39 38 38 38 37 36 36 35 38 37 37 37 37 38 40 39 40 43 44 44 44 45 46 45 43 41 41 39 47 44 40 42 45 53 52 51 50 51 47 42 42 46 50 49 44 43 43 43
38 38 38 38 38 37 38 38 39 39 39 39 38 38 38 38 38 38 38 37 36 35 35 38 36 37 37 37 38 38 38 40 42 43 43 43 43 45 44 42 40 41 40 41 42 41 41 37 46 50 50 49 49 49 48 45 46 47 50 47 46 44 46
38 38 37 37 37 37 37 38 38 39 38 38 38 37 37 37 38 38 37 36 36 34 35 37 36 36 36 37 37 38 38 39 41 42 42 41 41 43 43 41 40 40 40 40 42 43 42 37 36 40 42 44 46 49 49 45 43 46 49 49 47 47 46
37 37 37 37 37 37 37 37 37 38 39 37 38 37 37 37 36 36 36 35 35 34 34 36 36 36 36 36 38 37 37 38 40 41 40 39 39 40 43 41 39 38 39 39 42 40 42 41 35 35 36 38 42 43 44 48 43 42 46 47 48 48 48
37 37 37 36 36 36 36 37 37 38 36 36 37 37 36 35 35 34 34 34 34 33 33 36 36 36 36 36 38 35 36 37 38 40 40 38 38 38 40 41 38 38 38 38 40 38 39 44 38 36 35 36 38 40 40 39 45 45 41 41 40 40 40
37 37 36 36 36 36 37 37 37 37 35 35 35 37 36 34 34 34 33 33 34 33 33 35 36 36 36 36 38 35 35 36 37 38 38 37 37 37 39 46 43 37 37 37 37 37 38 42 38 38 37 36 36 37 37 38 42 50 47 44 43 42 41
37 36 36 36 36 36 36 36 37 35 35 34 35 36 37 33 32 32 32 32 36 33 32 34 36 35 36 36 37 34 35 35 36 37 36 36 35 36 36 40 43 39 38 38 36 37 37 41 39 38 38 37 37 37 37 37 40 48 49 48 48 48 46
37 35 35 35 35 35 36 34 34 34 34 34 34 35 34 32 31 31 31 30 31 31 32 32 35 35 35 35 36 35 34 34 35 36 35 35 34 34 35 35 38 37 35 36 36 36 36 37 38 38 38 38 38 37 38 38 44 49 49 48 47 48 47
36 35 35 34 35 35 34 34 33 33 33 33 33 33 33 32 30 29 29 29 29 29 33 32 34 35 35 35 35 35 33 34 34 35 33 33 33 33 34 34 36 37 35 36 35 35 36 36 38 38 37 37 38 40 41 41 43 49 48 50 50 48 46
37 36 36 34 32 32 33 33 33 32 32 32 32 32 32 31 29 28 27 28 29 28 31 35 33 35 35 35 35 35 34 34 35 34 33 32 32 32 33 33 35 35 35 35 35 35 35 35 36 37 35 36 37 37 41 42 42 43 44 46 49 48 46
36 35 36 35 33 32 32 32 31 32 31 30 30 30 30 29 27 26 26 26 26 27 28 31 35 34 34 34 34 34 34 34 34 34 32 32 31 32 32 33 35 37 34 34 35 35 34 35 36 34 35 35 36 36 39 38 39 42 43 44 46 47 44
36 35 36 35 34 31 30 30 31 30 29 29 28 27 28 28 26 25 25 25 26 26 27 28 33 35 34 33 33 33 33 34 34 33 33 32 32 32 31 32 34 34 34 34 34 34 34 34 34 34 34 35 36 37 36 36 36 38 38 38 41 43 43